Showing default

GONETS M 09 (M19), 40062

Orbit data source: Space-Track

GONETS M 09 (M19), 40062 is a payload satellite owned by Gonets (CIS) in LEO that was launched on Thu, 03 Jul 2014 UTC via an ROKOT launch vehicle from the Plesetsk Missile And Space Complex (PKMTR). Payload-class satellites include a variety of spacecraft equipped with specific instruments for various scientific and technological missions. These include communications satellites like Starlink; space stations such as the ISS; scientific satellites like the Hubble; Earth observation satellites from companies like Planet Labs, Umbra, and HawkEye 360; GPS; miniature CubeSats for education and research; and military/defense satellites.

Loading next visibility...
Identifier
40062, 2014-036B
Orbit
LEO
Country
Flag of CISCIS
Related business
Manufacturer
Resehetnev ISS
Mission
Operational Civil Communications
Bus & Motor
STRELA-3M, Unknown motor
Mass
280 kg wet, 280 kg dry
Launch date (UTC)
2014-07-03 (12 years ago)
Launch vehicle
ROKOT
Launch site
Plesetsk Missile And Space Complex (PKMTR)
Object type
Payload
Rocket body
Debris
Shape & HBR
Cyl + 1 Ant, 3.5 m
Radar Cross Section
1.798 m², Large (>1 m²)

Expand to show TLE details & history
Last TLE update: 9 hours ago

TLE from 9 hours ago
0 GONETS M 09 (M19)
1 40062U 14036B   26061.91784014  .00000036  00000-0  18638-3 0  9993
2 40062  82.5139  13.6624 0024084  29.4244 330.8186 12.42947335529259
Epoch: 2026-03-02T22:01Z
TLE epoch observation values (Epoch: 2026-03-02T22:01:41.388Z)
Latitude
0.00001°
Longitude
-117.46442°
Altitude
1,480.289 km
Speed
7.131 km/s
True Right ascension
00h 54m 38s
True Declination
0° 00' 00"
Sunlit
Object was in daylight at epoch
Visualization orbit readout
Latitude
Unknown
Longitude
Unknown
Altitude
Unknown
Speed
Unknown
Apparent Right ascension
Unknown
Apparent Declination
Unknown
Sunlit
N/A
Visualization observer readout
Local Sidereal Time
11:08:53
Azimuth
Unknown
Elevation
Unknown
Doppler factor
Unknown
Orbital elements
Apogee altitude
1,510.438 km
Perigee altitude
1,472.531 km
Semi-major axis
7,869.621 km
Eccentricity
0.00241
Inclination
82.5139°
RAAN
13.6624°
Arg. of periapsis
29.4244°
True anomaly
330.68368°
Mean anomaly
330.8186°
Eccentric anomaly
330.75118°
Mean motion
3.10894 °/min
Orbital period
115.8 mins
BSTAR
0.00018638
Loading maneuver chart data...
Computing Atmospheric mass density...
Loading historical data...
Loading historical data...
Loading historical data...
Loading historical data...
Loading historical data...
Loading historical data...
Loading historical data...
Other satellites on launch #36 in the year 2014 (2014-07-03 UTC)

Documentation

Showing up to 5 results
|